Weather History for Morelia, Mexico

Change the Weather History Date:

Friday, September 7, 2012

  Actual Average Record
Temperature  
Mean Temperature 68 °F -  
Max Temperature 81 °F 76 °F 81 °F (2012)
Min Temperature 55 °F 55 °F 41 °F (2000)
Cooling Degree Days 3    
Growing Degree Days 18 (Base 50)    
Moisture  
Dew Point 59 °F    
Average Humidity 81    
Maximum Humidity 100    
Minimum Humidity 38    
Precipitation  
Precipitation 0.01 in 0.14 in - ()
Sea Level Pressure  
Sea Level Pressure 30.01 in    
Wind  
Wind Speed 2 mph ()    
Max Wind Speed 14 mph    
Max Gust Speed -    
Visibility 5.7 miles    
Events Rain    
Averages and records for this station are not official NWS values.
T = Trace of Precipitation, MM = Missing Value Source: Averaged Metar Reports

Daily Weather History Graph

Daily Weather History Graph

Search for Another Location

Airport:

Trip Planner

Search our weather history database for the weather conditions in past years. The results will help you decide how hot, cold, wet, or windy it might be!

Date:

Astronomy

Sep. 07, 2012 Rise Set
Actual Time 7:30 AM CDT 7:53 PM CDT
Civil Twilight 7:07 AM CDT 8:15 PM CDT
Nautical Twilight 6:41 AM CDT 8:41 PM CDT
Astronomical Twilight 6:15 AM CDT 9:07 PM CDT
Moon 12:00 AM CDT (9/7) 1:27 PM CDT (9/7)
Length of Visible Light 13h 07m
Length of Day
12h 23m
Waning Gibbous, 58% of the Moon is Illuminated
Sep 7
Waning Gibbous
Sep 8
Last Quarter
Sep 15
New
Sep 22
First Quarter
Sep 29
Full

Hourly Weather History & Observations

Time (CDT) Temp. Heat Index Dew Point Humidity Pressure Visibility Wind Dir Wind Speed Gust Speed Precip Events Conditions
12:45 AM 60.8 °F - 59.0 °F 94% 29.81 in 6.0 mi Calm Calm - N/A   Scattered Clouds
12:50 AM 64 °F - 60 °F 84% 29.81 in 5 mi SW 2.2 mph - -   Partly Cloudy
1:49 AM 62.6 °F - 59.0 °F 88% 30.23 in 6.0 mi Calm Calm - N/A   Scattered Clouds
2:46 AM 59.0 °F - 59.0 °F 100% 30.22 in 6.0 mi Calm Calm - N/A   Scattered Clouds
3:47 AM 59.0 °F - 59.0 °F 100% 29.74 in 6.0 mi Calm Calm - N/A   Scattered Clouds
4:42 AM 57.2 °F - 57.2 °F 100% 30.22 in 6.0 mi Calm Calm - N/A   Scattered Clouds
5:47 AM 57.2 °F - 57.2 °F 100% 30.21 in 6.0 mi Calm Calm - N/A   Scattered Clouds
6:43 AM 57.2 °F - 57.2 °F 100% 29.79 in 6.0 mi Calm Calm - N/A   Partly Cloudy
6:50 AM 60 °F - 58 °F 91% 29.89 in 5 mi WSW 2.2 mph - -   Partly Cloudy
7:42 AM 55.4 °F - 55.4 °F 100% 30.24 in 3.0 mi Calm Calm - N/A   Scattered Clouds
8:54 AM 60.8 °F - 60.8 °F 100% 30.25 in 3.0 mi Calm Calm - N/A   Scattered Clouds
9:42 AM 64.4 °F - 62.6 °F 94% 29.85 in 3.0 mi Variable 2.3 mph - N/A   Mostly Cloudy
9:55 AM 65 °F - 59 °F 74% 29.95 in 6 mi SSE 2.2 mph - -   Partly Cloudy
10:48 AM 69.8 °F - 60.8 °F 73% 30.28 in 3.0 mi Variable 2.3 mph - N/A   Haze
11:45 AM 73.4 °F - 60.8 °F 65% 30.27 in 4.0 mi Calm Calm - N/A   Mostly Cloudy
12:49 PM 75.2 °F - 59.0 °F 57% 29.79 in 5.0 mi WNW 6.9 mph - N/A   Scattered Clouds
1:46 PM 77.0 °F - 60.8 °F 57% 30.21 in 7.0 mi Calm Calm - N/A   Scattered Clouds
2:50 PM 75.2 °F - 59.0 °F 57% 30.17 in 7.0 mi North 13.8 mph - N/A   Mostly Cloudy
3:49 PM 78.8 °F - 59.0 °F 51% 29.67 in 7.0 mi NW 6.9 mph - N/A   Mostly Cloudy
3:50 PM 77 °F - 58 °F 41% 29.76 in 7 mi SSW 4.5 mph - -   Partly Cloudy
4:52 PM 80.6 °F 81.1 °F 59.0 °F 48% 30.12 in 7.0 mi West 2.3 mph - N/A   Mostly Cloudy
5:47 PM 71.6 °F - 62.6 °F 73% 30.13 in 6.0 mi SSE 9.2 mph - N/A   Mostly Cloudy
6:47 PM 60.8 °F - 57.2 °F 88% 29.78 in 7.0 mi WNW 2.3 mph - N/A Rain Light Rain
6:50 PM 76 °F - 55 °F 38% 29.68 in 7 mi WSW 4.5 mph - -   Partly Cloudy
7:49 PM 62.6 °F - 60.8 °F 94% 30.13 in 7.0 mi Calm Calm - N/A   Mostly Cloudy
8:49 PM 60.8 °F - 59.0 °F 94% 30.16 in 7.0 mi SE 3.5 mph - N/A   Mostly Cloudy
9:45 PM 60.8 °F - 59.0 °F 94% 29.76 in 7.0 mi Calm Calm - N/A   Scattered Clouds
9:50 PM 65 °F - 57 °F 68% 29.71 in 5 mi ENE 4.5 mph - -   Partly Cloudy
10:40 PM 59.0 °F - 59.0 °F 100% 30.20 in 6.0 mi Calm Calm - N/A   Scattered Clouds
11:41 PM 59.0 °F - 59.0 °F 100% 30.21 in 6.0 mi Calm Calm - N/A   Scattered Clouds